Hourly Data Report for October 13, 2016

All times are specified in Local Standard Time (LST). Add 1 hour to adjust for Daylight Saving Time where and when it is observed.

PANGNIRTUNG
NUNAVUT

66°08'36.300" N
65°42'40.500" W
22.60 m
2403049
71826
WXP

Download Data

Hourly Data (October 2016)
Hourly Data Report for October 13, 2016
Temp Definition
°C
Dew Point Temp Definition
°C
Rel Hum Definition
%
Wind Dir Definition
10's deg

Wind Spd Definition
km/h
Visibility Definition
km
Stn Press Definition
kPa
Hmdx Definition


Wind Chill Definition


Weather Definition


TIME
00:00 -5.5 -8.6 79 13 11   100.92   -10 LegendNANA
01:00 -5.5 -8.6 79 11 8   100.83   -9 LegendNANA
02:00 -4.7 -8.3 76 14 5   100.76   -7 LegendNANA
03:00 -5.5 -7.8 83 33 4   100.72   -7 LegendNANA
04:00 -5.4 -7.9 83 24 2   100.65   -6 LegendNANA
05:00 -5.1 -7.6 83 24 3   100.58   -6 LegendNANA
06:00 -4.1 -8.7 70 10 9   100.54   -8 LegendNANA
07:00 -3.7 -8.3 71 11 10   100.50   -8 LegendNANA
08:00 -2.5 -8.3 64 11 6   100.43   -5 LegendNANA
09:00 -2.5 -8.2 65 9 9   100.36   -6 LegendNANA
10:00 -2.0 -8.2 62 9 12   100.31   -6 LegendNANA
11:00 -2.1 -7.8 65 10 16   100.26   -7 LegendNANA
12:00 -1.6 -8.1 61 9 15   100.25   -6 LegendNANA
13:00 -2.0 -7.0 68 9 17   100.24   -7 LegendNANA
14:00 -2.0 -7.5 66 8 14   100.22   -7 LegendNANA
15:00 -2.2 -7.8 65 8 14   100.23   -7 LegendNANA
16:00 -1.5 -8.1 61 12 10   100.23   -5 LegendNANA
17:00 -1.7 -7.4 65 10 9   100.25   -5 LegendNANA
18:00 -1.9 -6.9 68 8 12   100.26   -6 LegendNANA
19:00 -2.1 -6.9 70 8 14   100.26   -7 LegendNANA
20:00 -2.0 -7.0 69 7 10   100.27   -6 LegendNANA
21:00 -2.2 -6.6 72 9 9   100.26   -6 LegendNANA
22:00 -2.4 -6.9 71 9 6   100.25   -5 LegendNANA
23:00 -2.1 -7.2 68 17 1   100.24   -2 LegendNANA

Notes on Data Quality.

Legend

  • E = Estimated
  • M = Missing
  • NA = Not Available
  • ‡ = Partner data that is not subject to review by the National Climate Archives
Date modified: